2019 RG2
ephemeris date magn radius delta ra dec elong phase
Today16 Oct 202533.53.078 AU3.699 AU16h18m-26°44'45.2°13.3°
2019 RG2 - 2025-10-16
astro.vanbuitenen.nl


 
-1 year
-1 month
-1 day
Now
+1 day
+1 month
+1 year

The interactive orbit chart above shows the body's path through the solar system and its position at the given date. Green and blue lines are shown perpendicular to the ecliptic plane: Green if the path is above the ecliptic plane, blue if it is below. (Left-click and drag to rotate the view; Right-click and drag to move the view; Use scroll wheel to zoom in our out.)

The orbital elements of 2019 RG2 are:

            e (Eccentricity)                : 0.7126189
            a (Semimajor axis)              : 1.8141071
            i (Inclination)                 : 6.34578
            Ω (Longitude of ascending node) : 345.78345
            ω (Argument of perihelion)      : 99.90767
            M (Mean anomaly)                : 93.24086
            Epoch                           : 2025 May 05

            L (Longitude of perihelion)     : 265.75098
            B (Latitude of perihelion)      : 6.25076
            P (Orbital period in years)     : 2.44            
        

The light curve chart below shows the estimated development of the minor planet's magnitude.


The all-sky chart below shows the path of the minor planet over the same period as the light curve. The current position is marked yellow.





The following chart shows the path of the minor planet in the next few days. The field of view is optimized for (~10x50) binoculars and finderscopes. A more printer-friendly version of the same chart can be found below.




Ephemerides:
Date       Time       RA (2000)    DEC (2000)    delta   radius  elong  phase   PA    magn
2025-10-16 00:00 UT   16 18 45.9   -26 44 16     3.699    3.078   45.2   13.3   105   33.5 
2025-10-16 09:59 UT   16 19 16.6   -26 45 03     3.704    3.079   44.9   13.2   105   33.5 
2025-10-17 00:00 UT   16 19 59.9   -26 46 10     3.711    3.079   44.5   13.1   105   33.5 
2025-10-18 00:00 UT   16 21 14.2   -26 48 03     3.722    3.080   43.8   12.9   105   33.5 
2025-10-19 00:00 UT   16 22 29.0   -26 49 56     3.734    3.082   43.0   12.7   105   33.5 
2025-10-20 00:00 UT   16 23 44.1   -26 51 49     3.745    3.083   42.3   12.6   105   33.5 
2025-10-21 00:00 UT   16 24 59.5   -26 53 42     3.756    3.084   41.6   12.4   105   33.5 
2025-10-22 00:00 UT   16 26 15.4   -26 55 34     3.767    3.085   40.9   12.2   105   33.5 
2025-10-23 00:00 UT   16 27 31.6   -26 57 26     3.778    3.086   40.2   12.0   105   33.5 
2025-10-24 00:00 UT   16 28 48.1   -26 59 17     3.788    3.087   39.5   11.8   105   33.5 
2025-10-25 00:00 UT   16 30 05.0   -27 01 08     3.799    3.087   38.8   11.6   105   33.5 
2025-10-26 00:00 UT   16 31 22.2   -27 02 58     3.809    3.088   38.1   11.5   105   33.5 
2025-10-27 00:00 UT   16 32 39.7   -27 04 47     3.819    3.089   37.4   11.3   105   33.5 
2025-10-28 00:00 UT   16 33 57.6   -27 06 35     3.829    3.090   36.7   11.1   105   33.5 
2025-10-29 00:00 UT   16 35 15.7   -27 08 23     3.839    3.091   36.0   10.9   105   33.5 
2025-10-30 00:00 UT   16 36 34.2   -27 10 10     3.848    3.092   35.3   10.7   105   33.5 
2025-10-31 00:00 UT   16 37 53.0   -27 11 56     3.858    3.093   34.6   10.5   105   33.5 
2025-11-01 00:00 UT   16 39 12.0   -27 13 41     3.867    3.093   33.9   10.3   105   33.4 
2025-11-02 00:00 UT   16 40 31.3   -27 15 25     3.876    3.094   33.2   10.1   106   33.4 
2025-11-03 00:00 UT   16 41 51.0   -27 17 08     3.885    3.095   32.5    9.9   106   33.4 
2025-11-04 00:00 UT   16 43 10.9   -27 18 50     3.894    3.096   31.8    9.7   106   33.4 
2025-11-05 00:00 UT   16 44 31.0   -27 20 31     3.902    3.096   31.1    9.5   106   33.4 
2025-11-06 00:00 UT   16 45 51.4   -27 22 10     3.911    3.097   30.4    9.3   106   33.4 
2025-11-07 00:00 UT   16 47 12.1   -27 23 49     3.919    3.098   29.7    9.1   106   33.4 
2025-11-08 00:00 UT   16 48 33.1   -27 25 26     3.927    3.098   29.1    8.9   106   33.4 
2025-11-09 00:00 UT   16 49 54.2   -27 27 02     3.935    3.099   28.4    8.7   106   33.4 
2025-11-10 00:00 UT   16 51 15.7   -27 28 37     3.942    3.099   27.7    8.5   106   33.4 
2025-11-11 00:00 UT   16 52 37.4   -27 30 10     3.950    3.100   27.0    8.3   106   33.4 
2025-11-12 00:00 UT   16 53 59.3   -27 31 42     3.957    3.101   26.3    8.1   107   33.4 
2025-11-13 00:00 UT   16 55 21.4   -27 33 13     3.964    3.101   25.6    7.9   107   33.4 
2025-11-14 00:00 UT   16 56 43.8   -27 34 42     3.971    3.102   24.9    7.7   107   33.4 


    Terminology:
            
    delta:  distance between minor planet and earth in AU
    radius: distance between minor planet and sun in AU
    magn:   magnitude (brightness) estimate    
    ra:     right ascension in hours (24h = 360deg)
    dec:    declination in degrees
    elong:  elongation in degrees (angle sun-earth-minor planet)    
    phase:  phase angle in degrees (angle sun-minor planet-earth)        
    AU:     Astronomical Unit (mean distance between earth and sun: 149597870.7 km
    

Orbital elements provided by the MPC (Minor Planet Center).
Calculations by a modified version of AAPlus, a C# implementation of the AA+ project by PJ Naughter from the algorithms presented in the book "Astronomical Algorithms" by Jean Meeus.
NGC2000 dso catalog and star labels from VizieR as provided by the Strasbourg astronomical Data Center.
Tycho2 catalog from the ESO archive.